Date String (YYYY-MM-DD hh:mm:ss) UTC,Instrument flags,Ambient pressure (hPa),Sample flow (lpm),Bypass flow (lpm),Sample temperature (°C),Ambient temperature (°C),ASC tube jacket temperature (°C),LED temperature (°C),Box temperature (°C),Sample RH (%),Span deviation,Mass concentration (μg/m³),Mass concentration (μg/m³),Mass concentration (μg/m³)
DateTimeUTC,F1_M11,P_M11,Q1_M11,Q2_M11,T1_M11,T2_M11,T3_M11,T4_M11,T5_M11,U1_M11,ZSPAN_M11,X0_M11,X2_M11,X1_M11
2023-02-26 21:00:00,,0806.8,5.00,0.00,25.6,24.3,00.0,34.2,27.4,16.5,0003.3,0016.40,0010.35,0009.37
2023-02-26 21:01:00,,0806.8,5.00,0.00,25.6,24.3,00.0,34.2,27.5,16.6,0003.5,0016.14,0010.30,0009.40
2023-02-26 21:02:00,,0806.8,5.01,0.00,25.6,24.3,00.0,34.2,27.5,16.3,0003.5,0016.11,0010.32,0009.43
2023-02-26 21:03:00,,0806.8,5.00,0.00,25.6,24.3,00.0,34.2,27.5,16.4,0003.6,0015.96,0010.38,0009.48
2023-02-26 21:04:00,,0806.8,5.00,0.00,25.6,24.3,00.0,34.2,27.5,16.3,0003.8,0016.45,0010.42,0009.50
2023-02-26 21:05:00,,0806.9,5.01,0.00,25.6,24.4,00.0,34.2,27.5,16.4,0004.0,0017.50,0010.48,0009.51
2023-02-26 21:06:00,,0806.9,5.01,0.00,25.6,24.4,00.0,34.2,27.5,16.6,0003.9,0018.16,0010.50,0009.53
2023-02-26 21:07:00,,0807.0,5.00,0.00,25.6,24.4,00.0,34.2,27.5,16.4,0002.4,0018.33,0010.44,0009.54
2023-02-26 21:08:00,,0806.9,5.00,0.00,25.6,24.5,00.0,34.2,27.5,16.4,0004.2,0018.84,0010.45,0009.56
2023-02-26 21:09:00,,0806.9,4.99,0.00,25.7,24.5,00.0,34.2,27.6,16.4,0004.1,0019.12,0010.53,0009.60
2023-02-26 21:10:00,,0806.9,5.00,0.00,25.7,24.5,00.0,34.2,27.6,16.3,0004.5,0019.80,0010.57,0009.61
2023-02-26 21:11:00,,0807.0,5.00,0.00,25.7,24.5,00.0,34.3,27.6,16.5,0004.5,0019.70,0010.56,0009.61
2023-02-26 21:12:00,,0806.8,5.00,0.00,25.7,24.5,00.0,34.3,27.6,16.2,0004.4,0019.64,0010.52,0009.57
2023-02-26 21:13:00,,0806.9,5.01,0.00,25.7,24.5,00.0,34.3,27.6,16.2,0004.3,0019.60,0010.44,0009.51
2023-02-26 21:14:00,,0806.8,4.99,0.00,25.7,24.5,00.0,34.3,27.6,16.4,0004.1,0019.94,0010.35,0009.47
2023-02-26 21:15:00,,0806.9,5.00,0.00,25.7,24.5,00.0,34.3,27.6,16.4,0003.6,0020.58,0010.31,0009.43
2023-02-26 21:16:00,,0807.0,5.00,0.00,25.7,24.5,00.0,34.3,27.6,16.1,0003.3,0019.43,0010.22,0009.39
2023-02-26 21:17:00,,0807.0,5.01,0.00,25.7,24.5,00.0,34.3,27.6,16.4,0003.5,0018.71,0010.15,0009.34
2023-02-26 21:18:00,,0807.0,5.00,0.00,25.7,24.5,00.0,34.3,27.6,16.2,0003.4,0018.16,0010.11,0009.30
2023-02-26 21:19:00,,0807.0,5.00,0.00,25.7,24.5,00.0,34.3,27.6,16.4,0003.4,0017.05,0010.09,0009.26
2023-02-26 21:20:00,,0807.0,5.00,0.00,25.7,24.5,00.0,34.4,27.6,16.2,0003.5,0016.76,0009.98,0009.18
2023-02-26 21:21:00,,0806.9,5.00,0.00,25.8,24.5,00.0,34.4,27.6,16.2,0003.4,0015.91,0009.85,0009.10
2023-02-26 21:22:00,,0807.0,4.99,0.00,25.8,24.6,00.0,34.4,27.7,16.2,0003.4,0015.19,0009.74,0009.02
2023-02-26 21:23:00,,0807.0,4.99,0.00,25.8,24.6,00.0,34.4,27.7,16.0,0002.9,0016.41,0009.66,0008.95
2023-02-26 21:24:00,,0807.1,5.00,0.00,25.8,24.6,00.0,34.4,27.7,16.1,0002.4,0016.98,0009.61,0008.91
2023-02-26 21:25:00,,0807.0,5.00,0.00,25.8,24.7,00.0,34.4,27.7,15.2,0002.5,0016.86,0009.48,0008.77
2023-02-26 21:26:00,,0806.9,4.99,0.00,25.8,24.7,00.0,34.4,27.8,13.4,0001.3,0015.03,0008.95,0008.26
2023-02-26 21:27:00,,0806.8,5.00,0.00,25.9,24.7,00.0,34.4,27.8,12.2,0000.0,0014.19,0008.28,0007.62
2023-02-26 21:28:00,,0806.9,5.00,0.00,25.9,24.7,00.0,34.5,27.8,12.3,0000.0,0013.56,0007.64,0006.96
2023-02-26 21:29:00,,0806.9,5.00,0.00,25.9,24.7,00.0,34.5,27.7,11.8,0000.0,0012.95,0007.00,0006.33
2023-02-26 21:30:00,,0806.9,5.00,0.00,25.9,24.7,00.0,34.5,27.7,12.0,0000.0,0012.29,0006.34,0005.68
2023-02-26 21:31:00,,0806.9,5.01,0.00,25.9,24.6,00.0,34.5,27.7,12.3,0000.0,0011.65,0005.70,0005.04
2023-02-26 21:32:00,,0807.0,5.01,0.00,25.9,24.6,00.0,34.5,27.7,11.9,0000.0,0010.87,0005.08,0004.42
2023-02-26 21:33:00,,0807.0,5.00,0.00,25.9,24.6,00.0,34.5,27.7,12.0,0000.0,0010.21,0004.47,0003.82
2023-02-26 21:34:00,,0807.0,5.00,0.00,25.9,24.6,00.0,34.5,27.7,12.1,0000.0,0008.22,0003.88,0003.19
2023-02-26 21:35:00,,0807.1,5.00,0.00,25.9,24.6,00.0,34.5,27.7,12.7,0000.0,0006.74,0003.27,0002.21
2023-02-26 21:36:00,,0807.1,5.00,0.00,25.9,24.6,00.0,34.5,27.7,12.6,0000.0,0005.05,0002.43,0001.30
2023-02-26 21:37:00,,0807.1,5.01,0.00,25.9,24.6,00.0,34.6,27.7,12.3,0000.0,0004.62,0002.10,0001.02
2023-02-26 21:38:00,,0807.1,5.00,0.00,25.9,24.5,00.0,34.6,27.7,12.4,0000.0,0004.67,0002.10,0001.00
2023-02-26 21:39:00,,0807.1,5.01,0.00,25.8,24.5,00.0,34.6,27.7,12.2,0000.0,0004.60,0002.11,0001.00
2023-02-26 21:40:00,,0807.1,5.01,0.00,25.8,24.5,00.0,34.6,27.7,12.3,0000.0,0004.58,0002.07,0000.99
2023-02-26 21:41:00,,0807.1,5.00,0.00,25.8,24.5,00.0,34.6,27.7,12.0,0000.0,0004.57,0002.08,0001.07
2023-02-26 21:42:00,,0807.1,4.98,0.00,25.8,24.5,00.0,34.6,27.7,12.1,0000.0,0004.46,0002.04,0001.06
2023-02-26 21:43:00,,0807.1,4.99,0.00,25.8,24.5,00.0,34.6,27.7,11.0,0000.0,0004.49,0002.04,0001.06
2023-02-26 21:44:00,,0807.1,5.00,0.00,25.8,24.5,00.0,34.6,27.7,11.2,0000.0,0004.38,0002.00,0001.06
2023-02-26 21:45:00,,0807.2,5.00,0.00,25.8,24.4,00.0,34.6,27.7,11.0,0000.0,0004.29,0002.00,0001.04
2023-02-26 21:46:00,,0807.2,5.01,0.00,25.8,24.4,00.0,34.6,27.7,11.1,0000.0,0004.35,0002.01,0001.03
2023-02-26 21:47:00,,0807.2,5.00,0.00,25.8,24.4,00.0,34.6,27.7,11.3,0000.0,0004.26,0001.99,0001.03
2023-02-26 21:48:00,,0807.3,5.00,0.00,25.8,24.4,00.0,34.6,27.7,11.8,0000.0,0004.27,0001.98,0001.02
2023-02-26 21:49:00,,0807.3,5.00,0.00,25.8,24.4,00.0,34.6,27.6,11.8,0000.0,0004.12,0001.92,0001.02
2023-02-26 21:50:00,,0807.2,5.00,0.00,25.8,24.4,00.0,34.6,27.6,11.0,0000.0,0004.00,0001.85,0001.01
2023-02-26 21:51:00,,0807.2,5.01,0.00,25.8,24.3,00.0,34.5,27.6,10.9,0000.0,0003.91,0001.84,0001.01
2023-02-26 21:52:00,,0807.2,5.01,0.00,25.8,24.2,00.0,34.5,27.6,11.0,0000.0,0003.95,0001.79,0000.92
2023-02-26 21:53:00,,0807.4,5.00,0.00,25.8,24.2,00.0,34.5,27.6,11.1,0000.0,0004.26,0001.78,0000.92
2023-02-26 21:54:00,,0807.4,5.00,0.00,25.8,24.2,00.0,34.5,27.6,11.0,0000.0,0004.78,0001.81,0000.93
2023-02-26 21:55:00,,0807.3,4.99,0.00,25.8,24.2,00.0,34.5,27.5,11.3,0000.0,0004.84,0001.86,0000.94
2023-02-26 21:56:00,,0807.1,5.00,0.00,25.7,24.1,00.0,34.5,27.5,11.3,0000.0,0004.87,0001.87,0000.94
2023-02-26 21:57:00,,0807.2,4.99,0.00,25.7,24.1,00.0,34.5,27.5,11.3,0000.0,0004.73,0001.83,0000.95
2023-02-26 21:58:00,,0807.2,5.00,0.00,25.7,24.0,00.0,34.5,27.5,11.5,0000.0,0004.83,0001.85,0000.96
2023-02-26 21:59:00,,0807.2,5.00,0.00,25.7,24.0,00.0,34.5,27.5,11.2,0000.0,0005.23,0001.99,0000.98
